Temp
20 20 20 20 16 14 17 20 19 20 22 22 21 21 20 20 20 19 21 20 21 21 21 21 20 20 20 19 19 19 19 20 19 19 19 19 19 19 19 18 18 18 18 18 18 18 17 17 17
20 20 20 20 15 15 17 18 20 21 22 23 23 22 20 21 21 21 22 21 21 21 21 21 20 20 20 19 19 19 19 19 19 19 19 19 19 19 19 19 18 18 18 18 18 18 18 17 17
20 20 20 14 12 17 18 19 20 23 23 23 22 22 22 21 22 21 21 21 21 21 21 21 20 20 20 19 19 19 19 19 19 19 19 19 19 19 19 19 19 18 18 18 18 18 17 17 17
21 20 19 16 18 18 19 20 22 22 23 23 23 21 22 22 22 22 22 21 20 20 21 20 20 20 19 19 19 18 19 19 19 19 19 19 19 19 19 19 19 19 18 18 18 18 17 17 17
20 19 15 16 18 18 19 22 22 21 22 22 23 21 21 22 21 22 22 20 20 20 20 20 20 20 19 19 19 18 18 19 19 19 19 19 19 19 19 19 19 19 18 18 18 17 17 17 16
20 18 16 17 19 20 21 23 22 22 23 22 22 21 21 21 21 22 22 21 20 20 20 20 20 19 19 19 18 18 18 18 18 19 19 19 19 19 18 18 18 18 18 17 17 17 17 17 16
18 15 17 18 18 20 22 23 22 23 22 21 22 20 21 21 21 21 21 21 20 19 20 20 20 19 19 19 18 18 18 18 18 18 18 19 19 18 18 18 18 18 17 17 17 17 17 16 16
21 16 18 18 18 20 22 22 24 24 22 24 22 20 20 23 20 21 20 20 21 20 20 20 19 19 19 18 18 18 18 18 18 18 18 18 18 18 18 18 18 17 17 17 17 16 16 16 16
21 16 16 19 20 22 24 23 25 25 25 23 23 23 24 23 22 21 21 20 20 20 20 20 19 19 19 18 18 18 18 18 18 18 18 18 18 18 18 17 17 17 17 16 16 16 16 15 16
19 15 18 19 21 22 23 23 26 25 23 24 23 24 25 24 23 23 23 21 21 20 20 20 20 19 19 18 18 18 18 18 18 18 18 18 17 17 17 17 16 16 16 16 16 16 15 15 15
19 18 19 22 23 23 21 23 26 24 22 24 24 23 24 23 22 22 23 22 24 22 20 20 19 19 19 19 18 18 18 18 18 18 17 17 17 17 17 17 16 16 16 16 16 15 15 15 15
20 21 21 22 23 23 22 25 25 25 26 26 26 26 24 23 23 22 22 22 22 22 22 21 20 19 19 19 18 18 18 18 18 18 17 17 17 17 17 16 16 15 15 15 15 15 15 14 14
19 21 22 23 23 24 24 24 23 25 26 27 27 23 24 24 24 24 24 23 22 22 23 23 22 22 20 19 19 18 18 18 17 17 17 17 17 17 16 16 15 15 15 15 15 14 14 14 14
21 21 21 23 23 23 22 23 24 27 26 25 26 24 24 24 25 24 22 23 23 23 23 23 23 23 21 21 20 19 18 18 17 17 17 17 16 16 16 16 15 15 15 15 14 14 14 14 14
21 19 19 21 23 22 23 21 21 27 26 25 23 24 23 24 24 23 26 25 24 24 23 23 23 22 22 21 20 20 19 18 17 17 17 16 16 16 16 16 15 15 15 15 14 14 14 14 14
19 18 18 20 22 23 23 19 22 27 25 26 24 23 22 24 24 25 25 25 23 22 23 23 23 22 21 21 20 19 19 18 18 17 17 17 16 16 15 15 15 15 15 14 14 14 14 14 13
16 17 19 19 21 21 22 20 21 25 23 24 26 24 23 24 23 24 24 25 24 24 23 23 22 23 22 21 20 19 19 18 18 18 17 17 16 16 15 15 15 15 14 14 14 14 14 13 13
18 18 17 17 19 21 19 18 18 24 22 23 25 26 24 25 24 24 25 24 24 23 23 23 22 22 22 21 20 19 19 19 19 19 18 17 16 16 15 15 15 15 14 14 14 14 13 13 13
18 17 16 18 19 19 19 17 18 22 22 22 24 25 26 26 28 27 26 25 24 23 22 23 23 22 21 21 21 20 21 20 20 19 19 18 16 16 15 15 15 15 14 14 14 13 13 13 13
17 16 17 18 19 20 19 19 19 19 22 24 25 25 26 27 27 27 27 27 25 24 23 23 24 22 23 22 22 20 20 20 19 19 18 18 17 16 15 15 15 14 14 14 13 13 13 13 12
17 17 18 19 19 19 19 18 20 21 22 24 25 25 26 26 27 27 27 27 27 26 25 25 25 25 23 22 21 20 19 19 18 19 19 20 18 17 16 15 15 14 14 14 14 14 13 13 12
17 18 19 19 19 18 20 17 20 20 20 20 22 24 25 26 27 28 27 28 27 27 27 26 26 25 24 22 21 21 20 20 21 20 19 19 18 17 15 14 14 14 14 14 14 14 13 13 12
18 19 19 20 19 17 19 17 17 18 20 20 20 24 26 27 26 27 26 28 28 27 27 26 25 24 23 22 21 21 20 20 19 19 18 19 18 17 16 14 14 14 14 14 13 13 13 12 12
20 21 17 15 16 16 17 17 17 19 21 19 20 23 24 26 26 27 27 26 26 25 25 24 23 23 22 22 21 20 20 19 19 18 18 18 17 17 16 15 14 14 14 14 13 13 13 11 10
20 18 16 16 15 15 17 17 17 19 20 21 18 21 22 22 23 26 25 25 25 25 24 23 22 22 22 21 21 20 19 18 18 18 18 18 17 17 17 16 15 15 15 14 13 13 12 10 10
17 17 15 17 15 16 17 17 19 20 21 22 22 23 23 23 23 23 24 24 24 24 24 24 23 22 21 21 20 20 19 19 18 18 17 16 16 16 16 16 15 15 14 13 13 12 11 9 8
18 17 19 17 16 15 16 18 19 20 21 21 23 24 23 24 24 24 24 24 24 24 24 24 23 22 21 21 20 20 20 19 20 20 18 16 15 15 14 14 14 14 13 13 13 12 10 9 8
19 18 17 15 16 15 15 16 17 21 21 19 19 21 24 24 24 24 24 24 24 24 23 23 22 22 22 22 22 21 21 21 20 19 19 18 16 15 14 14 14 13 13 13 12 11 10 8 9
18 17 18 16 13 14 14 14 15 18 19 19 18 23 22 23 24 24 24 24 24 23 23 23 22 22 22 23 22 21 21 20 19 19 18 17 16 14 14 13 13 13 13 12 11 10 10 9 9
19 18 16 15 15 13 12 12 17 17 17 18 18 21 22 22 22 22 21 21 23 24 23 22 22 22 23 23 22 22 21 20 19 19 18 17 16 14 13 13 13 12 12 12 10 10 9 8 8
Height
1523 1523 1523 1523 1534 1538 1543 1529 1520 1520 1516 1516 1517 1517 1517 1514 1515 1525 1509 1514 1518 1519 1522 1525 1529 1533 1538 1540 1542 1543 1545 1546 1546 1546 1546 1547 1549 1550 1551 1552 1552 1552 1552 1552 1552 1552 1552 1553 1553
1523 1524 1525 1524 1542 1553 1546 1524 1519 1513 1513 1510 1513 1516 1519 1514 1510 1510 1511 1514 1518 1520 1523 1526 1530 1533 1537 1540 1542 1544 1546 1547 1547 1548 1548 1548 1550 1551 1552 1552 1553 1553 1553 1553 1553 1553 1553 1553 1554
1525 1524 1527 1531 1546 1547 1542 1521 1513 1508 1505 1507 1510 1514 1513 1510 1509 1509 1510 1513 1517 1520 1524 1527 1530 1534 1537 1540 1542 1545 1546 1547 1548 1549 1549 1550 1550 1551 1552 1553 1553 1553 1553 1553 1553 1553 1554 1554 1554
1525 1526 1529 1538 1538 1526 1523 1513 1512 1511 1508 1507 1508 1511 1511 1508 1508 1509 1510 1513 1517 1520 1524 1528 1532 1535 1538 1541 1543 1545 1546 1548 1548 1549 1550 1550 1551 1552 1552 1553 1553 1553 1553 1553 1553 1554 1554 1554 1555
1525 1526 1537 1540 1534 1522 1512 1512 1511 1512 1509 1508 1510 1510 1509 1509 1509 1509 1511 1514 1517 1521 1524 1528 1532 1534 1537 1540 1542 1545 1547 1548 1549 1549 1550 1550 1551 1552 1553 1553 1553 1553 1553 1554 1554 1554 1555 1555 1555
1525 1528 1541 1543 1531 1518 1510 1506 1511 1509 1509 1509 1511 1511 1509 1509 1510 1510 1512 1515 1518 1521 1524 1528 1531 1533 1536 1539 1542 1544 1546 1547 1548 1549 1550 1551 1552 1552 1552 1552 1553 1553 1553 1554 1554 1555 1555 1555 1556
1526 1532 1539 1535 1530 1520 1508 1504 1506 1508 1509 1509 1507 1509 1508 1507 1509 1512 1513 1515 1518 1521 1523 1526 1529 1532 1536 1538 1541 1542 1544 1546 1548 1549 1550 1551 1552 1552 1552 1553 1553 1553 1553 1554 1554 1554 1554 1555 1555
1524 1528 1534 1531 1529 1524 1508 1503 1500 1502 1508 1510 1510 1506 1505 1505 1508 1512 1515 1517 1517 1520 1523 1526 1529 1532 1535 1537 1539 1540 1543 1545 1546 1548 1550 1551 1551 1552 1552 1552 1552 1552 1553 1553 1553 1554 1553 1553 1553
1526 1535 1541 1530 1524 1514 1506 1507 1504 1502 1504 1507 1505 1502 1502 1503 1506 1510 1513 1515 1517 1519 1523 1525 1528 1531 1533 1536 1538 1539 1541 1543 1545 1546 1548 1549 1549 1550 1551 1551 1551 1552 1552 1552 1552 1552 1552 1552 1553
1525 1537 1528 1517 1514 1509 1505 1507 1501 1503 1503 1506 1502 1502 1502 1502 1503 1505 1507 1510 1514 1516 1518 1522 1525 1528 1531 1533 1535 1537 1539 1541 1542 1544 1546 1547 1548 1548 1549 1550 1550 1551 1551 1551 1551 1551 1551 1552 1551
1522 1527 1517 1513 1509 1507 1505 1504 1501 1500 1506 1500 1497 1499 1499 1501 1504 1505 1507 1508 1508 1512 1516 1519 1522 1525 1527 1529 1531 1534 1536 1538 1540 1542 1543 1545 1545 1546 1547 1548 1549 1549 1549 1549 1549 1549 1550 1550 1550
1522 1516 1514 1513 1509 1507 1503 1501 1497 1497 1498 1499 1498 1497 1497 1498 1501 1502 1504 1506 1507 1509 1512 1515 1518 1521 1523 1526 1528 1530 1532 1534 1536 1538 1540 1542 1542 1543 1544 1545 1546 1547 1547 1547 1547 1547 1548 1548 1548
1517 1513 1511 1509 1508 1504 1502 1500 1498 1494 1495 1495 1494 1498 1496 1495 1496 1499 1501 1504 1506 1507 1508 1511 1513 1515 1518 1521 1523 1525 1527 1530 1533 1535 1537 1538 1539 1540 1542 1543 1544 1545 1545 1544 1545 1545 1545 1546 1546
1513 1510 1506 1502 1501 1500 1499 1496 1496 1490 1492 1493 1492 1493 1495 1493 1493 1496 1499 1501 1502 1504 1504 1508 1509 1512 1513 1515 1518 1520 1522 1526 1528 1530 1532 1534 1536 1537 1538 1540 1541 1541 1541 1542 1541 1542 1543 1543 1543
1511 1511 1503 1499 1496 1496 1495 1496 1494 1488 1488 1489 1489 1490 1491 1492 1493 1492 1491 1492 1495 1497 1501 1502 1505 1508 1509 1511 1514 1515 1518 1521 1523 1525 1528 1530 1531 1532 1534 1535 1536 1537 1537 1538 1538 1538 1539 1539 1540
1513 1513 1517 1498 1495 1493 1495 1506 1484 1482 1481 1479 1483 1486 1487 1488 1487 1486 1488 1489 1493 1497 1497 1499 1501 1503 1506 1508 1510 1512 1514 1517 1519 1520 1523 1525 1526 1528 1529 1530 1531 1533 1534 1534 1534 1535 1535 1536 1536
1517 1523 1516 1507 1494 1495 1496 1499 1481 1479 1476 1473 1474 1477 1480 1483 1483 1481 1481 1483 1486 1488 1493 1495 1496 1498 1501 1505 1507 1510 1512 1513 1514 1516 1518 1519 1521 1523 1524 1525 1526 1528 1528 1529 1530 1531 1532 1534 1534
1524 1521 1518 1518 1499 1494 1497 1495 1483 1474 1474 1470 1470 1469 1473 1474 1471 1471 1473 1476 1480 1483 1487 1491 1493 1494 1498 1502 1503 1505 1506 1507 1508 1510 1511 1514 1516 1518 1519 1519 1520 1522 1522 1523 1525 1526 1528 1528 1530
1515 1518 1520 1505 1496 1499 1493 1492 1481 1472 1469 1467 1466 1467 1467 1467 1467 1464 1466 1471 1473 1476 1479 1484 1487 1488 1492 1495 1496 1497 1497 1499 1501 1503 1506 1508 1510 1512 1513 1513 1515 1517 1516 1517 1519 1522 1523 1523 1523
1514 1518 1513 1500 1493 1495 1489 1485 1473 1468 1466 1464 1464 1463 1462 1461 1460 1460 1460 1462 1463 1466 1469 1475 1479 1482 1484 1486 1488 1491 1493 1494 1496 1498 1500 1502 1504 1505 1506 1506 1507 1509 1511 1513 1516 1518 1518 1519 1520
1510 1511 1507 1502 1492 1491 1490 1489 1474 1464 1462 1460 1459 1457 1456 1453 1450 1448 1451 1454 1456 1458 1462 1465 1468 1471 1474 1479 1483 1485 1489 1490 1491 1492 1493 1495 1497 1498 1499 1500 1502 1504 1506 1507 1510 1511 1511 1513 1513
1511 1495 1497 1498 1498 1512 1492 1515 1478 1467 1462 1458 1455 1453 1448 1443 1439 1439 1443 1447 1450 1452 1455 1459 1462 1464 1467 1471 1475 1478 1480 1481 1483 1486 1489 1490 1491 1492 1493 1495 1497 1498 1499 1500 1501 1504 1505 1505 1501
1496 1487 1492 1492 1497 1503 1500 1510 1487 1471 1466 1459 1451 1445 1441 1435 1432 1432 1437 1441 1445 1448 1451 1455 1458 1459 1462 1466 1470 1473 1475 1478 1480 1483 1485 1486 1485 1486 1488 1489 1491 1493 1493 1493 1494 1496 1494 1498 1479
1487 1486 1494 1502 1505 1520 1500 1504 1492 1475 1466 1458 1449 1445 1441 1437 1434 1433 1435 1438 1441 1445 1449 1452 1454 1456 1460 1464 1467 1469 1471 1473 1476 1478 1478 1479 1480 1481 1481 1482 1483 1484 1485 1485 1485 1488 1486 1488 1487
1487 1497 1519 1523 1525 1522 1493 1499 1484 1465 1459 1455 1449 1446 1444 1441 1440 1436 1437 1439 1441 1445 1448 1452 1454 1456 1459 1462 1463 1465 1467 1469 1472 1473 1473 1472 1473 1474 1474 1475 1476 1477 1477 1477 1476 1478 1480 1470 1477
1486 1492 1513 1520 1527 1511 1492 1499 1476 1456 1454 1451 1449 1447 1447 1446 1445 1444 1444 1444 1445 1447 1449 1452 1454 1455 1456 1457 1459 1461 1463 1464 1465 1465 1464 1465 1465 1467 1468 1467 1468 1470 1468 1469 1469 1471 1467 1482 1466
1478 1490 1474 1495 1503 1514 1497 1479 1461 1451 1452 1451 1449 1448 1448 1447 1448 1448 1448 1447 1447 1446 1446 1447 1448 1449 1450 1452 1455 1455 1456 1456 1457 1457 1457 1456 1457 1458 1459 1459 1460 1460 1461 1461 1462 1461 1467 1465 1477
1462 1464 1490 1496 1508 1517 1501 1490 1479 1456 1453 1450 1448 1448 1447 1448 1448 1447 1447 1447 1446 1445 1444 1444 1444 1445 1445 1446 1447 1449 1450 1450 1451 1451 1450 1449 1449 1450 1450 1450 1451 1452 1452 1453 1454 1457 1458 1464 1469
1465 1469 1470 1476 1491 1501 1507 1496 1459 1453 1450 1450 1446 1445 1445 1446 1447 1447 1446 1445 1443 1442 1439 1439 1439 1439 1439 1440 1441 1441 1442 1443 1443 1443 1443 1442 1442 1443 1444 1444 1446 1447 1447 1449 1449 1453 1451 1459 1463
1448 1454 1462 1482 1485 1488 1493 1490 1446 1447 1447 1448 1446 1444 1445 1445 1444 1444 1444 1443 1440 1437 1435 1433 1433 1432 1432 1432 1433 1433 1435 1435 1435 1435 1435 1436 1436 1436 1438 1440 1440 1442 1442 1442 1444 1444 1449 1455 1456
Wind_Speed
3 4 6 4 4 5 3 3 2 2 2 4 16 8 8 5 5 4 6 30 26 30 31 29 27 25 23 20 17 15 13 13 14 14 14 14 13 12 11 10 10 9 9 9 9 9 8 8 8
2 3 5 2 4 4 4 5 5 6 9 14 14 8 5 4 4 1 18 19 28 28 29 28 27 25 23 21 19 16 13 12 12 12 13 12 11 10 10 9 9 9 8 8 8 8 7 7 6
1 3 2 4 3 4 4 6 5 14 20 10 6 7 5 4 3 5 10 21 31 27 26 27 27 25 23 22 19 16 13 12 11 11 10 10 10 9 8 8 7 7 7 7 7 7 6 6 5
1 0 4 4 3 5 6 9 9 3 3 4 2 4 3 3 3 6 16 22 25 26 25 26 25 24 23 21 19 17 14 12 11 10 10 9 9 9 8 7 6 6 6 5 5 5 6 5 3
0 2 3 1 5 6 5 9 16 4 8 9 7 4 2 2 2 6 13 17 17 20 23 25 25 24 24 22 21 18 15 13 11 9 9 9 9 8 8 7 6 5 4 4 4 4 4 4 3
1 2 3 2 4 5 6 12 11 7 10 4 11 3 1 5 6 12 11 13 13 15 22 25 25 24 25 24 22 19 17 14 12 11 10 9 9 9 8 8 6 5 5 4 3 2 2 2 2
3 3 2 3 4 6 4 5 9 8 7 10 9 5 3 9 10 12 13 12 13 17 23 26 26 26 26 24 22 21 18 16 14 13 11 11 11 10 10 8 6 6 4 3 2 2 2 2 2
2 4 2 3 3 6 5 5 11 20 9 13 19 6 6 18 18 16 15 12 13 19 24 26 26 27 27 26 24 22 20 18 17 15 13 12 12 12 11 8 7 6 5 5 4 3 3 2 3
3 3 2 4 3 6 16 3 5 10 8 19 20 6 6 23 22 20 17 15 17 22 23 25 27 29 28 27 25 24 22 21 20 18 17 16 15 14 12 10 9 8 6 6 5 5 6 4 3
4 4 6 6 5 13 21 11 6 4 13 17 18 12 11 26 27 27 26 25 23 26 28 29 30 29 28 28 27 27 26 25 24 21 20 18 17 16 14 13 11 10 8 7 7 7 6 4 4
3 5 5 8 13 15 8 8 3 9 3 16 26 22 23 30 28 28 26 26 25 26 27 30 30 29 30 31 30 30 29 28 26 24 23 21 20 19 17 16 14 12 10 9 9 8 8 7 6
3 11 9 8 12 11 7 10 4 5 10 10 25 30 32 33 31 32 31 29 29 29 27 25 25 29 31 31 32 31 32 31 30 28 26 24 23 22 20 17 15 13 11 11 11 10 11 10 10
5 3 11 21 18 14 12 10 4 10 13 6 8 27 36 35 33 32 31 30 30 30 27 24 24 25 30 32 33 34 35 34 32 29 28 27 25 24 22 19 17 14 13 10 10 12 12 12 12
5 12 18 16 20 12 5 7 3 22 12 8 14 29 38 37 34 35 36 34 35 32 29 26 25 26 30 33 34 34 36 35 34 32 30 28 27 25 24 22 20 19 17 14 14 14 14 15 16
8 7 8 4 8 3 5 5 6 25 25 16 20 29 39 40 38 40 34 38 37 35 32 31 30 32 33 34 34 35 35 34 35 34 31 30 29 28 26 25 24 22 20 19 19 19 19 20 19
3 3 4 4 5 4 0 8 12 23 27 28 18 28 36 41 42 43 40 41 40 40 38 36 33 33 33 34 34 35 33 33 33 33 32 32 31 30 28 27 26 25 24 24 24 24 25 24 22
4 2 4 8 1 2 3 8 13 28 17 20 26 24 33 40 44 48 48 46 45 43 42 40 39 37 35 33 33 32 31 30 30 31 30 30 30 29 29 29 28 26 28 29 27 28 26 27 25
4 4 4 6 7 1 5 11 11 27 14 20 22 28 24 26 33 43 50 51 49 48 45 43 42 40 39 36 35 33 31 30 31 32 32 31 31 30 31 31 30 29 32 32 30 30 28 29 29
6 5 9 12 12 4 8 8 11 23 14 12 19 22 23 24 24 25 33 48 53 51 50 48 48 46 43 42 40 38 34 33 34 33 33 33 33 32 33 34 34 33 34 35 34 32 32 33 33
7 9 14 11 6 6 9 12 11 8 9 10 15 20 24 24 29 30 27 28 39 54 53 49 49 50 48 47 44 41 36 36 35 35 35 34 35 36 37 37 37 37 38 37 36 35 36 38 36
6 6 6 9 3 3 4 8 5 7 8 19 20 22 23 27 31 29 31 27 30 36 44 46 44 46 49 50 48 45 42 39 38 36 37 37 37 37 37 37 38 38 39 41 39 38 40 41 39
9 7 11 6 5 2 3 5 5 6 9 4 17 17 20 24 23 26 26 27 31 32 36 43 43 45 49 52 51 48 46 43 40 37 36 37 39 38 38 38 39 41 42 43 44 42 40 44 46
8 8 8 3 2 2 1 1 6 5 6 10 11 24 25 24 15 11 20 25 32 33 38 43 46 47 49 50 50 48 48 44 41 37 34 34 34 35 40 41 38 38 41 43 45 45 37 47 44
8 2 5 4 2 3 5 5 5 1 4 8 10 21 17 14 7 5 12 19 24 29 36 39 43 44 45 47 46 46 46 44 41 39 37 34 34 34 36 38 40 35 39 43 47 45 40 38 9
4 4 2 3 1 6 4 1 9 6 6 5 10 15 8 9 8 5 8 9 11 15 21 25 28 30 33 35 38 40 40 40 38 38 39 39 38 36 35 35 36 35 38 40 48 44 45 29 15
7 9 5 6 4 5 3 6 6 6 5 8 8 7 6 3 1 4 4 5 6 7 8 11 14 19 23 25 25 28 30 32 34 35 38 39 37 35 33 34 35 38 40 42 41 43 39 13 20
7 5 10 4 2 2 4 6 10 1 3 6 7 8 10 9 8 7 8 11 12 15 15 16 19 20 21 21 21 24 25 25 21 25 32 33 30 32 32 31 31 33 34 36 39 34 24 15 18
12 8 3 1 4 4 4 4 6 3 6 8 6 8 9 9 12 14 17 19 21 21 22 20 20 21 19 18 21 22 20 18 18 22 26 30 30 30 31 31 33 31 35 32 33 26 19 19 21
4 4 2 5 6 6 4 6 7 9 8 8 10 19 13 12 17 16 16 21 28 30 30 28 25 24 24 24 27 26 26 23 21 20 21 26 29 31 34 31 33 31 32 28 26 21 21 25 23
3 8 7 5 6 3 4 6 5 8 7 8 17 20 22 32 31 32 32 31 32 35 37 36 32 30 29 29 31 32 30 25 23 21 19 20 25 29 30 31 30 32 29 28 25 24 28 30 24
Wind_Direction
64 36 352 348 52 61 350 300 292 68 101 213 180 183 203 253 199 207 306 172 181 173 173 173 175 178 181 176 175 169 163 158 153 149 144 142 138 138 138 138 134 126 123 119 118 116 113 109 111
69 352 352 55 79 56 294 268 227 119 151 150 184 265 232 221 230 238 141 161 176 173 176 176 178 181 182 180 181 176 171 165 158 153 148 143 141 140 144 145 137 134 129 127 121 121 123 124 126
20 337 333 89 109 156 175 254 244 174 173 206 143 223 243 153 217 183 173 161 174 176 181 183 182 183 183 187 183 183 176 173 164 157 150 145 145 151 156 155 149 141 139 135 134 133 133 141 144
120 297 55 74 256 257 196 212 218 284 162 169 236 263 236 205 193 149 159 161 170 175 184 186 184 186 188 189 186 188 184 181 174 164 158 156 161 166 167 168 165 155 154 145 140 142 144 157 158
337 45 55 52 258 267 239 229 187 235 174 203 183 266 273 203 173 151 152 162 172 179 184 187 187 189 192 192 191 192 190 189 182 175 171 173 177 182 181 180 179 168 160 149 157 159 152 162 164
40 50 40 276 272 268 275 247 166 192 207 202 178 210 211 240 225 162 158 158 164 187 189 191 189 192 196 195 195 194 196 195 192 188 187 187 193 196 195 195 184 176 172 175 180 175 166 156 153
115 83 258 282 268 304 257 238 176 177 205 217 179 150 230 206 195 177 161 167 182 189 190 190 193 195 198 198 198 198 201 202 202 200 198 199 208 208 210 208 199 200 195 204 218 212 198 157 144
194 99 328 253 284 286 292 230 216 178 198 215 198 193 217 191 181 174 170 178 181 185 191 194 195 198 200 200 201 202 206 208 209 208 209 212 217 221 221 218 218 220 222 231 228 224 224 207 212
218 60 276 267 287 270 315 339 253 211 197 185 201 230 255 177 179 182 186 187 182 186 197 200 202 203 203 204 205 206 210 213 214 213 215 218 223 228 228 227 229 232 232 232 227 218 226 221 234
157 128 235 204 241 288 294 301 276 139 184 216 204 219 224 183 184 190 193 192 192 193 198 203 207 208 208 209 210 211 213 216 217 219 221 223 227 231 230 230 230 233 234 232 226 227 231 226 226
199 202 236 281 299 316 274 271 236 139 204 222 205 210 189 187 193 199 202 202 197 195 199 203 207 210 214 214 214 215 218 221 222 223 224 226 229 233 233 233 234 235 235 240 233 227 225 224 221
265 249 258 298 318 315 292 312 287 235 181 232 240 219 192 192 199 204 209 208 206 204 206 206 208 213 217 219 220 221 223 225 225 226 226 227 230 235 236 237 235 231 231 231 223 221 229 235 225
208 272 300 304 302 292 291 282 265 272 282 260 234 203 197 199 203 211 217 216 213 211 212 214 215 217 220 222 223 226 228 228 230 229 230 231 232 237 240 238 233 229 226 221 223 222 232 236 237
291 294 296 304 292 274 237 268 311 286 287 252 206 207 204 207 210 213 217 222 220 215 214 212 216 219 221 223 225 228 229 230 231 232 233 235 237 238 241 240 235 231 227 226 228 231 242 246 247
288 307 314 257 279 281 262 312 243 293 286 271 216 213 210 215 218 219 224 221 218 213 212 211 215 218 221 223 226 229 231 232 233 234 234 236 238 240 241 241 236 234 233 232 233 231 238 248 251
340 50 323 269 319 316 114 280 281 293 293 266 238 218 218 220 226 230 230 231 227 223 219 217 220 225 225 223 227 230 230 234 236 236 235 236 238 240 240 238 238 235 234 236 236 236 240 245 252
356 232 268 318 235 274 191 273 275 306 305 266 264 239 225 229 231 233 233 233 232 230 225 225 224 228 230 224 227 230 232 233 236 234 233 232 234 235 238 240 241 240 238 240 241 240 244 247 253
271 308 281 255 286 281 267 257 279 303 301 264 269 267 250 252 247 240 238 235 236 234 233 232 231 230 229 227 228 229 233 234 237 238 235 231 231 236 237 241 241 241 242 243 243 243 245 250 254
282 271 267 265 267 258 271 263 275 295 303 283 270 261 265 265 283 272 245 239 239 237 236 235 235 234 230 228 227 228 232 231 236 240 239 236 234 236 237 242 241 241 245 249 249 248 247 252 250
230 262 276 279 246 195 279 286 268 260 259 271 270 271 279 287 275 269 254 246 239 238 237 237 238 235 234 231 232 232 235 237 240 243 243 244 240 238 238 241 244 243 246 248 248 249 251 253 247
233 222 263 272 318 291 327 305 307 266 251 279 279 280 280 276 277 275 249 249 235 232 233 234 234 235 233 231 230 232 234 238 241 244 247 249 248 246 244 246 250 250 250 251 250 249 250 248 241
257 211 243 262 358 280 67 275 275 309 307 297 308 310 306 304 282 271 242 246 240 241 234 232 233 234 233 230 232 233 236 239 244 246 248 251 253 253 252 249 248 252 253 253 254 256 254 246 242
242 201 211 225 224 18 303 94 268 334 336 325 306 328 329 330 287 271 238 240 241 235 233 231 233 234 233 233 234 236 238 244 249 252 256 258 258 258 257 255 255 258 256 255 255 257 250 252 232
278 184 56 46 77 325 221 160 280 287 286 294 295 321 325 340 336 290 255 248 241 232 231 236 236 237 237 236 239 241 244 247 250 255 261 266 265 263 261 258 258 261 263 266 258 260 255 240 190
170 80 329 338 338 218 194 111 242 242 272 267 299 314 340 357 345 285 246 229 227 230 234 241 246 248 248 247 249 250 250 251 255 261 265 268 268 271 274 269 263 263 271 267 261 258 257 211 249
191 170 168 209 204 238 246 228 251 193 281 359 351 306 298 301 115 150 174 199 213 218 224 232 236 236 238 241 246 251 254 257 261 263 265 266 268 271 273 277 268 262 267 265 262 258 233 250 195
185 176 198 126 109 49 248 286 313 191 275 349 358 344 298 282 280 270 252 246 248 250 249 245 250 240 237 239 244 249 252 253 261 271 271 269 266 267 271 269 269 265 268 268 259 242 215 221 216
192 155 102 351 187 228 263 258 227 287 276 314 300 299 299 295 268 265 262 258 253 253 250 247 247 249 247 245 245 240 238 244 258 268 274 276 273 267 268 272 270 268 272 268 251 221 228 198 208
157 182 147 135 149 186 188 251 223 232 250 267 283 300 279 303 314 297 295 282 265 256 252 250 246 245 240 250 249 236 236 251 255 266 277 273 269 263 263 267 274 268 266 260 233 228 212 203 205
238 202 154 163 215 208 169 257 237 221 259 309 300 304 306 318 327 323 315 308 293 271 252 248 250 248 250 258 255 251 247 252 253 262 278 285 276 268 265 261 263 265 259 236 233 227 206 211 212